Amsterdam, Netherlands

6:15 PM CEST on August 21, 2017 (GMT +0200)
Amsterdam

Weather History for 06240 - August, 2013

Change the Weather History Date:

Wednesday, August 7, 2013

  Actual Average Record
Temperature  
Mean Temperature 61 °F -  
Max Temperature 65 °F 68 °F - ()
Min Temperature 57 °F 54 °F - ()
Degree Days  
Heating Degree Days 4    
Growing Degree Days 11 (Base 50)    
Moisture  
Dew Point 56 °F    
Average Humidity 83    
Maximum Humidity 94    
Minimum Humidity 71    
Precipitation  
Precipitation 0.12 in - - ()
Sea Level Pressure  
Sea Level Pressure 29.92 in    
Wind  
Wind Speed 9 mph ()    
Max Wind Speed 20 mph    
Max Gust Speed -    
Visibility 7.3 miles    
Events Rain    
T = Trace of Precipitation, MM = Missing Value Source: Averaged Metar Reports

Daily Weather History Graph

Daily Weather History Graph

Search for Another Location

Airport or City:

Trip Planner

Search our weather history database for the weather conditions in past years. The results will help you decide how hot, cold, wet, or windy it might be!

Date:

Astronomy

Aug. 07, 2013 Rise Set
Actual Time 6:11 AM CEST 9:21 PM CEST
Civil Twilight 5:30 AM CEST 10:01 PM CEST
Nautical Twilight 4:37 AM CEST 10:54 PM CEST
Astronomical Twilight 3:25 AM CEST 12:03 AM CEST
Moon 6:57 AM CEST (8/7) 9:02 PM CEST (8/7)
Length of Visible Light 16h 30m
Length of Day
15h 10m
New Moon, 0% of the Moon is Illuminated
Aug 7
New Moon
Aug 14
First Quarter
Aug 21
Full
Aug 28
Last Quarter
Sep 5
New

Hourly Weather History & Observations

Time (CEST) Temp. Dew Point Humidity Pressure Visibility Wind Dir Wind Speed Gust Speed Precip Events Conditions
12:25 AM 60.8 °F 55.4 °F 82% 29.98 in - North 4.6 mph - N/A   Clear
12:55 AM 60.8 °F 57.2 °F 88% 29.98 in 6.2 mi NNE 3.5 mph - N/A   Partly Cloudy
1:25 AM 60.8 °F 57.2 °F 88% 29.98 in 6.2 mi ENE 4.6 mph - N/A   Partly Cloudy
1:55 AM 62.6 °F 57.2 °F 82% 29.98 in 6.2 mi East 9.2 mph - N/A   Partly Cloudy
2:00 AM 62 °F 57 °F 77% 29.99 in 19 mi East 8.9 mph - -   Partly Cloudy
2:25 AM 60.8 °F 57.2 °F 88% 29.98 in 6.2 mi East 8.1 mph - N/A   Partly Cloudy
2:55 AM 60.8 °F 55.4 °F 82% 29.95 in 6.2 mi East 8.1 mph - N/A   Partly Cloudy
3:25 AM 60.8 °F 55.4 °F 82% 29.95 in 6.2 mi East 8.1 mph - N/A   Partly Cloudy
3:55 AM 60.8 °F 55.4 °F 82% 29.95 in 6.2 mi East 8.1 mph - N/A   Partly Cloudy
4:25 AM 59.0 °F 55.4 °F 88% 29.95 in - ENE 8.1 mph - N/A   Clear
4:55 AM 59.0 °F 55.4 °F 88% 29.95 in 6.2 mi East 8.1 mph - N/A   Partly Cloudy
5:00 AM 59 °F 56 °F 85% 29.97 in 16 mi East 8.9 mph - -  
5:25 AM 57.2 °F 55.4 °F 94% 29.95 in 6.2 mi East 6.9 mph - N/A   Partly Cloudy
5:55 AM 59.0 °F 55.4 °F 88% 29.95 in 6.2 mi ENE 8.1 mph - N/A   Partly Cloudy
6:25 AM 59.0 °F 57.2 °F 94% 29.92 in 6.2 mi ENE 9.2 mph - N/A   Partly Cloudy
6:55 AM 60.8 °F 57.2 °F 88% 29.92 in - East 8.1 mph - N/A   Clear
7:25 AM 60.8 °F 57.2 °F 88% 29.92 in - ENE 8.1 mph - N/A   Clear
7:55 AM 60.8 °F 57.2 °F 88% 29.95 in - ENE 9.2 mph - N/A   Clear
8:00 AM 62 °F 57 °F 79% 29.95 in 15 mi ENE 6.7 mph - -   Partly Cloudy
8:25 AM 62.6 °F 57.2 °F 82% 29.95 in - ENE 9.2 mph - N/A   Clear
8:55 AM 64.4 °F 57.2 °F 77% 29.92 in - NE 10.4 mph - N/A   Clear
9:25 AM 64.4 °F 57.2 °F 77% 29.92 in - NE 11.5 mph - N/A   Clear
9:55 AM 64.4 °F 59.0 °F 83% 29.92 in 6.2 mi NE 13.8 mph - N/A   Partly Cloudy
10:25 AM 64.4 °F 57.2 °F 77% 29.92 in 6.2 mi ENE 17.3 mph - N/A   Partly Cloudy
10:55 AM 64.4 °F 57.2 °F 77% 29.89 in 6.2 mi NE 16.1 mph - N/A   Partly Cloudy
11:00 AM 64 °F 57 °F 71% 29.92 in 19 mi NE 15.7 mph - -   Overcast
11:25 AM 64.4 °F 57.2 °F 77% 29.89 in 6.2 mi ENE 17.3 mph - N/A   Partly Cloudy
11:55 AM 64.4 °F 57.2 °F 77% 29.89 in 6.2 mi ENE 16.1 mph - N/A Rain Light Rain
12:25 PM 64.4 °F 55.4 °F 73% 29.86 in 6.2 mi NE 16.1 mph - N/A   Partly Cloudy
12:55 PM 64.4 °F 55.4 °F 73% 29.89 in 6.2 mi ENE 19.6 mph - N/A Rain Light Rain
1:25 PM 62.6 °F 55.4 °F 77% 29.89 in 6.2 mi ENE 16.1 mph - N/A Rain Light Rain
1:55 PM 62.6 °F 57.2 °F 82% 29.89 in 6.2 mi ENE 9.2 mph - N/A Rain Light Rain
2:00 PM 62 °F 56 °F 77% 29.91 in 9 mi ENE 11.2 mph - - Rain Rain
2:25 PM 60.8 °F 55.4 °F 82% 29.89 in 6.2 mi NE 15.0 mph - N/A Rain Light Rain
2:55 PM 60.8 °F 57.2 °F 88% 29.89 in 6.2 mi NE 12.7 mph - N/A Rain Light Rain
3:25 PM 60.8 °F 57.2 °F 88% 29.89 in 6.2 mi NE 10.4 mph - N/A Rain Light Rain
3:55 PM 60.8 °F 57.2 °F 88% 29.89 in 6.2 mi NNE 11.5 mph - N/A Rain Light Rain
4:25 PM 62.6 °F 57.2 °F 82% 29.89 in 6.2 mi NE 13.8 mph - N/A Rain Light Rain
4:55 PM 60.8 °F 57.2 °F 88% 29.86 in 6.2 mi NE 16.1 mph - N/A Rain Light Rain
5:00 PM 61 °F 58 °F 86% 29.89 in 11 mi NE 17.9 mph - - Rain Light Rain
5:25 PM 60.8 °F 59.0 °F 94% 29.89 in 6.2 mi NE 13.8 mph - N/A Rain Light Rain
5:55 PM 60.8 °F 59.0 °F 94% 29.89 in 6.2 mi NNE 12.7 mph - N/A Rain Light Rain
6:25 PM 60.8 °F 57.2 °F 88% 29.89 in 6.2 mi NNE 13.8 mph - N/A Rain Light Rain
6:55 PM 60.8 °F 57.2 °F 88% 29.89 in 6.2 mi NNE 12.7 mph - N/A Rain Light Rain
7:25 PM 60.8 °F 57.2 °F 88% 29.89 in 6.2 mi NNE 15.0 mph - N/A   Partly Cloudy
7:55 PM 60.8 °F 55.4 °F 82% 29.89 in 6.2 mi NNE 11.5 mph - N/A   Partly Cloudy
8:00 PM 60 °F 56 °F 81% 29.89 in 28 mi NNE 15.7 mph - -   Partly Cloudy
8:25 PM 60.8 °F 55.4 °F 82% 29.89 in 6.2 mi NNE 15.0 mph - N/A   Partly Cloudy
8:55 PM 60.8 °F 53.6 °F 77% 29.89 in 6.2 mi NNE 12.7 mph - N/A   Partly Cloudy
9:25 PM 60.8 °F 55.4 °F 82% 29.92 in 6.2 mi North 10.4 mph - N/A   Partly Cloudy
9:55 PM 60.8 °F 55.4 °F 82% 29.92 in 6.2 mi NNW 12.7 mph - N/A   Mostly Cloudy
10:25 PM 59.0 °F 55.4 °F 88% 29.92 in 6.2 mi NNW 10.4 mph - N/A Rain Light Rain
10:55 PM 60.8 °F 53.6 °F 77% 29.92 in 6.2 mi NNW 10.4 mph - N/A   Mostly Cloudy
11:00 PM 60 °F 54 °F 75% 29.95 in 28 mi NNW 8.9 mph - -   Overcast
11:25 PM 59.0 °F 53.6 °F 82% 29.92 in 6.2 mi NNW 8.1 mph - N/A   Mostly Cloudy
11:55 PM 60.8 °F 53.6 °F 77% 29.95 in 6.2 mi NNW 8.1 mph - N/A   Overcast